Regional Weather Roundup
Issued by NWS

Home | Current Version | Previous Version | Graphics & Text | Print | Product List | Glossary On
Versions: 1 2 3 4 5 6 7 8 9 10 11 12 13 14 15 16 17 18 19 20 21 22 23 24 25 26 27 28 29 30 31 32 33 34 35 36 37 38 39 40 41 42 43 44 45 46 47 48 49 50
000
ASUS43 KLOT 280221
RWRIL

ILLINOIS REGIONAL WEATHER ROUNDUP
NATIONAL WEATHER SERVICE CHICAGO/ROMEOVILLE IL
900 PM CDT FRI MAR 27 2015

NOTE: "FAIR" INDICATES FEW OR NO CLOUDS BELOW 12,000 FEET WITH NO
SIGNIFICANT WEATHER AND/OR OBSTRUCTIONS TO VISIBILITY.

* THESE STATIONS ARE NOT UNDER NWS QUALITY CONTROL. THEY ALSO MAY NOT
  REPORT WEATHER SUCH AS PRECIPITATION OR FOG.

ILZ001-002-007-009-015-016-024-280300-
NORTHWEST ILLINOIS

CITY           SKY/WX    TMP DP  RH WIND       PRES   REMARKS
MOLINE         CLEAR     27  15  61 SE3       30.18R
STERLING*      FAIR      25  16  68 CALM      30.20R
SAVANNA*       CLEAR     28  12  51 CALM      30.19S
$$

ILZ003-004-008-010-011-017-018-280300-
NORTH CENTRAL ILLINOIS

CITY           SKY/WX    TMP DP  RH WIND       PRES   REMARKS
ROCKFORD       CLEAR     27   8  44 E6        30.20R WCI  20
FREEPORT*      CLEAR     25  11  54 CALM      30.20R
ROCHELLE*      CLEAR     26  16  65 NE6       30.19S WCI  19
DE KALB*       CLEAR     21  14  74 E7        30.19R WCI  13
PERU*          CLEAR     29  14  54 NE5       30.20R WCI  24
$$

ILZ005-006-012>014-019>023-280300-
NORTHEAST ILLINOIS

CITY           SKY/WX    TMP DP  RH WIND       PRES   REMARKS
CHICAGO-OHARE  CLEAR     24  13  62 NE8       30.20R WCI  15
CHICAGO-MIDWAY CLEAR     26  13  57 N10       30.20R WCI  16
AURORA         CLEAR     25  14  63 E10       30.20R WCI  15
LANSING*       CLEAR     25  10  53 N12       30.20S WCI  14
JOLIET*        CLEAR     26  15  62 NE8       30.20R WCI  18
WAUKEGAN       CLEAR     22  14  71 N5        30.20R WCI  16
DUPAGE AIRPORT CLEAR     23  13  65 NE8       30.19R WCI  14
KANKAKEE*      CLEAR     24  17  74 NE8       30.20R WCI  15
WHEELING       CLEAR     24  13  62 N6        30.22R WCI  17
MORRIS*        CLEAR     26  15  63 E7        30.19R WCI  19
ROMEOVILLE*    CLEAR     24  14  65 NE12      30.20R WCI  13
NORTHERLY ISL    N/A     25   8  48 N15         N/A  WCI  13
$$

LMZ740>746-280300-
SOUTHERN LAKE MICHIGAN

STATION/POSITION SKY/WX   TEMP    WIND        PRES    VSBY  WAVE
                          AIR SEA DIR/SP/G                  HT/PER
                          (F)     (DEG/KT/KT) (MB)    (MI)  (FT/S)
HARRISON CRIB              26      10/ 20/ 22   N/A
BURNHAM HARBOR             26     350/ 11/ 18   N/A
CALUMET HARBOR             25     350/ 11/ 16 1021.2R
BURNS HARBOR               25      10/ 20/ 24 1022.4
MICHIGAN CITY              24     340/ 23/ 26   N/A
$$

ILZ025>027-034>036-040-047-049-050-058-095>099-280300-
WEST-CENTRAL ILLINOIS

CITY           SKY/WX    TMP DP  RH WIND       PRES   REMARKS
QUINCY         PTCLDY    32  14  47 E7        30.17R WCI  26
GALESBURG*     CLEAR     27  12  54 NE3       30.18S
MACOMB*        CLEAR     29  18  63 NE3       30.20S
JACKSONVILLE*  CLEAR     32  17  53 NE3       30.19R
PITTSFIELD*    CLEAR     33  16  48 NE5       30.19R WCI  29
$$

ILZ028>032-037-038-041>044-048-051>054-059>061-280300-
CENTRAL ILLINOIS

CITY           SKY/WX    TMP DP  RH WIND       PRES   REMARKS
PONTIAC        CLEAR     28  18  65 N5        30.19S WCI  23
BLOOMINGTON    CLEAR     28  15  58 N6        30.18R WCI  22
DECATUR        CLEAR     28  15  58 N7        30.18R WCI  21
PEORIA         CLEAR     31  12  45 CALM      30.19R
LACON*         CLEAR     27  14  59 CALM      30.19R
LINCOLN*       CLEAR     28  19  67 N3        30.21R
SPRINGFIELD    CLEAR     30  15  53 N5        30.19R WCI  25
TAYLORVILLE    CLEAR     30  21  69 N7        30.18R WCI  23
$$

ILZ033-039-045-046-055>057-062-063-280300-
EAST-CENTRAL ILLINOIS

CITY           SKY/WX    TMP DP  RH WIND       PRES   REMARKS
CHAMPAIGN      CLEAR     25  15  66 N6        30.16R WCI  18
DANVILLE*      CLEAR     25  16  68 NE9       30.15S WCI  15
RANTOUL*       FAIR      28  19  69 NE6       30.17R WCI  22
MATTOON        CLEAR     28  18  66 N8        30.16R WCI  20
PARIS*         CLEAR     28  19  70 NE3       30.17S
$$

ILZ079-100>102-280300-
SOUTHWEST ILLINOIS

CITY           SKY/WX    TMP DP  RH WIND       PRES   REMARKS
ALTON          CLEAR     34  18  51 N6        30.17R WCI  29
BELLEVILLE     CLEAR     34  21  59 N2        30.17R
CAHOKIA*       FAIR      35  23  61 NE3       30.18R
SPARTA*        CLEAR     33  23  67 CALM      30.19R
$$

ILZ064>066-069>071-074>076-080>082-084>086-088>090-092>094-280300-
SOUTH-CENTRAL ILLINOIS

CITY           SKY/WX    TMP DP  RH WIND       PRES   REMARKS
CARBONDALE     PTCLDY    33  22  63 CALM      30.18R
CAIRO*         PTCLDY    36  22  58 N3        30.19R
EFFINGHAM*     CLEAR     32  15  50 N5        30.19R WCI  27
MARION         CLOUDY    37  21  52 CALM      30.18R
MT. VERNON     CLEAR     30  16  55 CALM      30.18R
CENTRALIA*     CLEAR     34  20  56 N5        30.17R WCI  29
SALEM*         CLEAR     34  21  59 N6        30.18R WCI  29
METROPOLIS*    MOCLDY    36  22  55 NW5       30.18R WCI  32
$$

ILZ067-068-072-073-078-083-087-091-280300-
SOUTHEAST ILLINOIS

CITY           SKY/WX    TMP DP  RH WIND       PRES   REMARKS
LAWRENCEVILLE  CLEAR     31  19  61 N8        30.17R WCI  23
FLORA*         CLEAR     32  21  63 N8        30.18R WCI  25
FAIRFIELD*     CLEAR     32  22  66 N5        30.17R WCI  27
HARRISBURG*    CLEAR     32  24  74 NW3       30.19R
ROBINSON*      CLEAR     28  20  71 N6        30.18R WCI  22
CARMI*         PTCLDY    34  22  63 N9        30.16R WCI  26
$$

ABBREVIATIONS USED IN REMARKS
   TC - TEMPERATURE IN CELSIUS
  WCI - WIND CHILL INDEX
   HX - HEAT INDEX
  VSB - VISIBILITY
$$



USA.gov is the U.S. government's official web portal to all federal, state and local government web resources and services.